Theta_e
350 348 348 346 345 346 354 353 352 354 351 353 351 347 342 337 335 334 331 330 337 342 345 346 348 357 358 358 359 360 359 358 354 353 355 356 357 354 350 352 352 353 353 352 353 354 356 356 355 355 354 353 350 347 345 344 343 341 339 337 336 336 336 333 333 333 333 333 333 333 334 335 336 337
351 352 351 348 346 347 349 345 347 356 349 349 350 350 349 342 336 335 334 333 338 341 346 351 348 350 354 360 361 361 359 361 361 350 350 354 358 352 350 351 351 351 351 351 350 353 355 355 354 351 350 349 348 346 344 344 343 340 339 336 334 335 334 332 332 333 333 332 332 332 333 334 335 334
350 349 348 348 347 347 345 347 346 350 352 348 349 350 352 346 342 344 337 332 337 347 344 347 350 350 349 354 357 358 358 361 362 356 351 354 356 354 354 351 349 349 348 347 346 346 348 349 348 346 346 346 345 345 345 344 343 341 338 335 333 332 332 330 331 332 331 331 331 331 331 332 333 333
352 349 348 348 349 347 347 349 350 350 351 351 348 347 350 350 348 346 339 336 337 344 347 348 351 353 352 353 352 350 353 361 359 353 353 356 358 359 358 354 349 347 346 345 344 343 341 341 342 343 345 346 346 345 344 344 343 340 337 334 330 330 330 329 330 331 330 330 330 330 330 330 331 331
351 350 349 348 349 351 349 348 349 351 353 352 351 349 348 348 348 345 341 337 339 341 347 351 350 353 355 351 353 353 355 355 357 358 356 356 357 359 359 358 352 347 344 343 342 341 340 338 339 341 344 344 345 344 344 345 344 342 337 332 327 327 328 328 328 330 329 328 328 328 328 329 330 330
354 352 350 351 349 350 349 348 348 347 348 348 349 349 349 345 346 346 342 338 337 337 340 344 348 350 355 351 353 355 354 354 358 355 355 357 357 358 358 356 356 350 345 341 339 340 339 338 338 339 342 343 343 342 342 342 340 339 335 329 326 327 326 326 327 329 327 327 327 327 327 329 329 330
355 354 354 354 352 352 349 348 347 348 347 347 347 347 346 346 346 347 346 342 339 340 340 342 345 347 351 350 350 353 356 357 356 354 355 356 358 358 356 357 358 351 345 342 340 339 338 338 337 337 338 340 338 339 337 336 335 334 330 327 326 327 326 325 325 326 325 325 325 326 327 328 329 330
355 354 353 354 354 352 349 347 347 347 346 345 346 347 348 347 346 346 347 347 344 341 340 341 345 346 348 349 350 354 356 356 356 355 356 357 357 357 357 356 357 355 345 343 341 340 338 337 336 335 335 335 333 332 332 332 332 331 329 326 325 325 324 323 323 324 323 322 323 323 325 327 328 327
357 356 354 354 354 352 349 348 348 348 346 347 345 344 345 348 349 349 347 347 347 344 342 343 346 348 349 350 352 353 354 354 354 353 354 356 356 356 357 358 358 351 346 343 341 339 338 337 336 335 334 333 331 330 330 330 331 330 328 326 325 324 324 323 321 322 322 321 321 320 322 325 326 325
358 356 355 355 354 353 351 349 350 350 349 348 346 344 344 345 347 348 348 348 347 346 345 345 345 345 350 349 350 351 353 353 352 353 355 355 355 354 354 356 359 360 356 352 350 341 338 338 334 334 334 332 331 331 330 330 329 327 325 321 321 323 323 322 322 322 321 320 320 321 322 324 324 324
358 358 356 355 355 354 353 352 351 351 350 350 348 347 346 346 346 347 347 347 347 348 347 346 346 347 348 349 348 349 352 351 353 352 352 352 354 352 353 356 359 360 356 350 347 348 346 344 342 333 329 330 330 330 330 329 328 326 323 320 319 320 319 319 320 321 320 320 320 319 318 319 322 324
357 358 357 357 356 355 355 354 353 352 351 351 349 349 348 348 347 347 348 346 345 344 345 344 343 342 343 343 349 352 350 350 347 349 351 349 348 349 348 352 352 354 353 353 353 348 344 342 340 332 331 332 332 331 331 332 332 330 326 323 323 323 320 319 320 320 318 317 316 316 316 316 319 320
357 357 357 356 356 358 364 362 360 359 358 353 350 351 350 349 348 347 346 346 344 345 345 345 345 344 345 348 347 348 345 347 348 349 345 344 347 348 349 352 354 356 355 355 353 354 353 349 347 344 340 338 336 333 333 334 336 334 327 325 325 324 323 320 319 320 319 317 317 315 315 316 317 320
354 355 355 357 364 362 363 361 356 349 354 359 356 352 351 351 349 348 346 345 344 344 343 344 344 344 345 346 348 348 349 351 348 346 346 344 347 345 347 348 350 353 353 350 350 351 352 351 349 343 342 343 343 338 334 334 334 334 330 327 325 325 324 321 320 319 318 317 316 316 314 315 317 317
352 352 353 353 360 365 362 357 349 346 343 345 349 350 358 360 352 348 347 347 346 345 344 344 344 343 344 345 347 348 350 349 349 347 347 346 345 343 340 340 345 350 353 348 342 346 346 347 347 347 347 347 341 339 337 336 335 330 329 327 326 325 324 323 322 320 318 317 316 316 315 315 316 316
350 350 350 351 352 352 353 354 355 353 347 341 341 342 346 348 352 355 353 349 347 347 346 345 346 346 346 347 348 349 349 349 347 347 346 344 345 344 340 337 340 344 356 346 342 346 346 350 349 349 352 354 352 347 338 335 334 331 329 328 327 326 325 324 324 324 321 320 319 320 319 319 318 318
348 348 348 348 348 349 360 359 353 351 352 347 340 338 340 343 344 340 341 348 354 351 349 348 348 349 349 349 350 351 349 347 347 345 345 345 344 344 342 342 340 347 352 348 342 345 348 348 348 352 355 356 357 357 343 336 334 331 329 328 327 326 325 323 323 323 322 321 319 318 318 316 315 315
349 347 347 346 346 346 346 347 347 347 347 348 349 348 347 346 349 347 341 339 343 352 354 352 350 352 353 351 352 356 352 348 349 346 346 346 345 345 347 349 348 350 354 349 344 345 348 348 349 350 353 354 352 353 347 339 333 331 328 327 326 325 324 323 322 321 321 321 319 317 315 314 313 314
350 349 348 346 345 345 345 345 347 343 344 346 347 346 346 347 346 347 347 349 350 349 352 355 355 355 356 356 357 357 356 355 354 353 351 350 350 351 351 350 351 352 353 350 346 344 347 347 344 350 352 353 352 352 335 330 330 329 327 326 326 324 323 322 322 321 320 320 318 316 314 313 312 312
351 350 348 347 346 346 345 349 342 349 348 343 344 345 346 346 346 346 349 340 342 351 350 350 352 353 354 345 354 355 356 355 356 358 353 349 350 348 346 344 346 344 344 353 350 346 347 351 349 350 352 350 351 352 339 329 326 326 326 326 325 323 321 320 320 320 320 320 318 316 313 310 309 311
351 351 349 347 346 346 345 344 332 332 344 344 343 343 344 345 346 346 349 338 331 331 330 331 333 333 333 332 330 328 330 340 345 346 343 344 345 341 338 339 338 339 341 346 353 348 346 351 346 349 349 350 350 350 348 332 325 324 323 323 323 322 320 318 317 318 319 319 318 317 316 310 309 311
349 349 358 360 348 345 345 337 330 329 337 340 341 341 342 343 344 346 349 351 349 330 325 326 326 327 328 328 328 329 329 329 335 339 339 343 343 340 338 336 338 339 341 344 354 343 348 350 344 345 345 343 344 344 343 330 326 324 321 319 320 319 318 318 317 318 318 318 318 316 314 310 310 315
347 347 354 357 353 351 345 331 328 327 335 340 341 341 340 340 342 345 348 350 351 352 350 348 344 342 338 342 341 343 335 333 343 340 341 344 342 340 339 338 337 335 337 341 353 344 340 339 340 342 338 337 340 336 331 329 325 324 326 324 321 318 318 317 316 315 315 317 317 316 313 310 310 317
343 345 346 348 336 328 326 323 322 321 321 338 342 342 340 340 340 344 344 350 353 354 355 355 355 353 353 352 352 350 349 349 349 343 342 342 342 341 340 340 338 335 335 337 351 343 338 338 337 342 342 336 333 334 328 326 324 324 323 322 321 320 321 320 317 315 313 314 314 314 313 310 310 317
344 345 346 347 340 328 323 321 318 316 316 323 338 341 342 343 343 345 342 344 355 350 351 352 354 353 352 352 352 351 350 350 349 347 342 343 343 342 341 339 338 338 341 344 344 342 340 339 338 336 338 341 339 339 333 326 325 323 324 322 321 320 320 319 319 319 315 312 311 310 310 310 309 316
344 346 347 348 342 329 323 319 316 314 315 316 331 337 325 325 325 335 343 342 342 343 344 344 345 345 345 346 348 349 349 349 349 348 346 343 343 343 344 342 341 339 340 346 338 345 342 340 341 340 337 334 336 338 337 335 329 325 323 321 321 320 320 319 321 319 320 320 320 314 314 311 311 311
345 347 349 352 350 320 312 310 312 313 313 319 329 319 317 317 319 329 333 336 337 338 340 342 342 343 344 343 344 346 348 351 351 351 349 349 346 345 345 346 346 345 347 348 349 346 344 341 342 341 339 338 335 333 334 334 334 324 322 321 321 320 320 318 318 319 320 320 321 316 312 311 311 312
343 344 346 342 316 309 307 309 310 310 313 324 315 313 314 316 320 329 332 333 335 337 337 339 340 342 344 345 345 345 346 347 350 353 354 353 352 350 349 348 347 348 348 348 348 347 345 344 343 343 342 340 337 336 337 339 336 327 327 325 323 321 321 320 318 323 325 321 321 322 320 320 319 314
337 328 315 311 312 313 311 312 314 317 320 316 313 311 312 322 331 333 334 336 338 338 339 340 342 343 344 345 347 348 349 349 349 349 352 355 355 355 355 353 352 351 351 351 350 350 348 346 345 345 342 341 339 339 338 339 339 334 330 327 324 324 323 322 320 318 320 321 321 321 322 323 322 322
317 313 313 313 314 318 322 332 335 336 337 327 323 321 322 332 333 334 336 337 338 339 341 342 343 345 347 348 349 350 350 349 349 348 348 347 348 349 348 347 348 352 354 354 353 353 352 350 348 347 345 344 343 343 343 343 342 343 338 335 335 332 328 325 322 320 322 321 322 322 323 324 324 324
334 333 334 334 325 323 323 323 324 325 330 333 335 336 338 339 339 338 338 339 341 342 343 343 345 346 348 349 348 348 347 347 348 349 347 347 347 347 346 344 345 346 348 352 355 355 354 353 351 349 346 346 345 345 347 347 345 345 344 339 337 339 333 327 326 324 322 322 324 324 324 324 325 332
325 329 330 330 339 342 341 341 340 340 338 336 335 337 339 340 340 342 343 343 341 341 342 343 343 344 345 345 346 347 347 347 348 349 347 347 347 347 345 343 343 345 346 346 348 353 357 354 353 351 349 348 346 347 347 347 347 347 348 345 339 341 337 333 331 328 326 324 324 324 324 325 324 325
323 330 334 335 336 336 336 337 338 340 341 342 342 341 341 341 341 341 340 340 340 340 340 340 341 341 342 343 345 346 346 347 348 348 347 348 347 347 345 344 344 344 343 344 344 344 349 353 353 352 351 350 350 349 347 344 346 349 348 349 343 340 339 337 336 334 329 326 326 326 326 326 326 326
317 328 332 333 334 334 335 335 336 337 338 340 341 342 337 341 342 342 341 341 341 341 340 341 340 340 341 342 343 344 344 346 348 346 341 348 347 345 345 344 344 345 344 344 345 345 344 347 350 352 352 351 351 351 350 347 346 347 348 349 348 345 343 340 336 334 331 331 330 328 327 328 328 328
326 327 329 331 333 334 335 336 337 338 339 340 341 342 342 343 342 340 341 342 342 340 340 340 340 340 341 341 342 342 344 344 346 347 345 346 346 346 345 344 344 344 344 344 344 345 344 344 345 346 346 347 348 351 349 352 348 347 347 347 348 348 347 342 338 332 331 331 331 330 330 329 329 330
324 327 328 329 331 333 334 336 338 339 340 341 342 342 342 342 343 342 342 342 345 343 343 342 340 341 341 342 342 343 343 341 344 345 345 346 345 345 345 345 344 344 345 344 344 346 345 345 344 343 342 342 342 343 344 345 347 351 347 346 348 347 349 346 338 334 329 329 330 330 330 330 331 331
324 327 329 330 332 334 335 337 338 339 340 341 342 343 342 342 343 343 344 341 343 343 344 344 345 345 343 342 341 339 341 341 343 343 343 345 345 345 344 343 342 343 343 345 346 345 345 345 344 344 343 341 339 338 341 345 341 339 353 350 349 350 349 344 334 330 329 330 329 329 330 332 333 333
324 327 328 330 332 334 335 336 336 337 338 340 342 343 344 344 345 345 346 345 344 343 343 343 343 342 343 343 344 344 344 344 343 343 342 344 343 343 344 343 344 344 344 344 345 345 346 346 344 344 343 340 339 338 338 341 342 343 337 349 351 352 349 346 337 334 330 329 331 330 330 330 332 334
323 322 322 322 323 325 326 327 327 328 329 331 332 334 336 339 342 345 345 344 345 345 345 345 344 343 344 344 342 342 343 344 344 343 343 343 343 343 343 343 343 344 343 343 344 342 342 344 344 343 343 342 340 341 342 339 339 345 336 325 346 352 351 348 347 344 340 332 328 330 330 331 326 324
319 318 317 316 317 318 319 321 322 323 324 327 329 331 331 331 332 335 337 340 343 345 346 345 344 341 345 345 343 344 344 343 343 343 343 343 342 341 342 343 343 343 342 341 341 341 340 342 343 345 344 345 346 346 342 341 342 343 344 335 322 341 352 349 348 349 345 343 336 328 328 327 326 326
316 314 313 313 312 313 314 315 316 318 321 324 326 325 328 328 329 332 334 335 337 342 345 347 346 345 345 346 346 345 343 343 343 343 343 341 339 339 338 334 340 341 340 340 340 340 340 342 345 336 347 346 342 340 338 338 338 342 342 345 323 321 328 337 353 351 349 346 337 335 333 330 328 326
313 311 310 310 310 310 311 311 312 315 317 319 321 323 323 324 326 326 330 333 335 335 337 343 347 345 345 346 346 343 343 343 343 343 341 342 343 341 336 336 339 340 339 338 340 341 342 343 347 345 345 341 338 337 336 335 337 339 342 344 344 326 321 322 325 333 354 348 336 334 332 329 325 325
311 309 308 308 309 309 309 310 311 312 312 313 316 318 319 321 323 324 327 328 330 331 334 335 336 338 342 345 347 346 345 344 343 344 343 342 342 342 341 342 341 340 340 340 342 342 342 344 343 342 341 339 338 338 337 338 338 339 341 343 344 345 342 327 322 321 324 330 331 340 344 337 324 323
308 307 307 307 306 306 307 308 308 309 309 310 312 313 314 316 317 319 321 323 326 328 331 331 330 329 327 327 328 334 344 346 346 344 343 343 341 341 341 341 339 339 339 339 340 341 342 343 343 342 340 339 339 337 337 338 338 339 341 342 343 343 343 343 343 330 325 324 322 321 324 328 332 335
306 306 306 306 305 305 306 306 307 306 306 307 308 309 311 312 313 314 316 318 321 324 323 320 319 319 319 320 322 325 329 329 335 340 340 340 340 338 337 338 338 338 338 340 339 339 340 341 341 342 341 340 340 339 338 337 337 338 339 340 339 341 342 339 339 339 339 341 333 323 322 322 323 323
Wind_Speed
4 3 4 4 5 4 2 1 0 2 2 3 3 4 4 5 3 1 2 2 1 3 1 0 2 1 2 4 3 2 4 5 5 4 4 5 4 8 11 11 10 10 9 9 9 9 9 8 8 8 8 7 7 8 8 7 6 5 5 6 6 7 7 7 8 9 10 10 10 11 11 11 10 10
4 3 4 4 5 3 2 5 1 2 2 2 2 3 3 4 2 3 1 3 3 2 3 1 1 2 4 4 5 3 5 7 7 4 4 5 6 9 10 11 11 11 10 9 9 9 9 9 8 8 7 7 7 7 8 8 6 6 5 6 6 6 6 7 7 9 9 9 10 11 11 11 11 11
4 4 5 5 5 4 3 3 2 2 2 3 3 2 3 2 4 5 4 0 3 2 2 2 2 1 3 4 4 4 4 6 6 4 4 5 9 10 7 10 11 11 10 10 10 10 10 10 9 9 8 7 7 7 9 9 7 6 5 5 5 5 6 6 7 8 8 9 9 10 11 11 11 10
4 4 4 5 5 5 3 3 1 2 3 2 2 2 2 2 3 4 4 3 6 4 3 4 4 4 2 4 2 4 4 3 4 4 4 6 7 6 6 8 11 11 11 11 11 11 11 11 10 10 9 8 7 7 8 9 8 7 5 4 4 5 5 5 6 7 8 9 9 10 11 11 10 10
4 4 4 5 5 4 3 3 2 1 2 1 3 1 1 3 3 3 3 3 6 4 3 4 3 3 2 2 0 2 3 4 3 3 4 5 5 6 5 5 8 11 11 12 12 12 12 12 11 11 10 9 8 8 9 9 9 8 5 3 2 4 5 5 6 7 8 9 9 10 10 10 10 10
5 4 4 5 5 4 5 4 3 2 1 1 3 4 3 4 5 3 3 4 3 6 2 3 4 3 1 2 1 1 3 4 4 4 4 4 4 6 5 5 5 10 11 12 13 13 13 13 12 12 11 11 10 10 10 10 11 9 7 5 4 4 4 5 6 7 7 9 9 9 9 9 9 9
4 4 4 5 5 3 4 4 4 3 3 2 3 4 3 4 5 3 4 3 4 6 6 3 3 3 2 3 3 2 2 3 3 4 5 5 5 4 4 4 4 7 11 12 13 14 14 14 13 12 12 12 11 11 11 11 11 11 9 6 5 4 4 4 5 6 6 9 10 9 8 8 8 9
6 6 5 6 5 4 4 5 4 4 4 4 4 4 4 3 5 4 3 4 5 4 5 4 3 3 2 3 3 2 3 3 5 4 5 5 5 6 5 3 4 6 10 12 13 14 14 14 13 12 13 12 12 11 11 11 12 11 10 9 7 5 4 4 5 5 6 8 9 9 9 9 9 10
7 7 7 7 5 4 5 5 4 4 5 5 4 5 5 5 5 4 3 5 4 5 6 6 3 2 2 2 3 2 3 5 4 4 4 6 6 6 6 5 5 6 9 11 12 13 13 13 13 12 12 12 12 12 12 12 12 12 11 10 8 6 5 5 5 5 5 7 9 9 9 10 9 10
7 7 8 7 6 6 6 6 6 5 6 5 6 6 6 5 4 4 4 3 4 5 7 6 6 3 4 3 4 3 3 4 5 6 6 5 4 4 6 6 6 3 2 3 5 7 9 12 14 13 11 12 12 12 12 13 13 13 12 11 9 7 6 6 5 5 6 6 9 9 9 10 9 10
8 8 8 8 7 7 7 7 7 6 6 6 6 7 7 6 4 5 5 4 4 4 5 4 4 5 4 4 6 4 2 3 4 4 7 7 5 2 3 6 6 4 4 5 7 7 7 7 7 9 12 13 13 13 13 13 14 14 13 13 11 9 8 7 6 6 6 6 7 8 9 9 9 10
8 9 8 8 8 9 9 8 8 7 7 6 6 7 6 6 5 6 5 4 4 4 4 6 6 4 4 3 4 3 2 4 4 3 4 6 7 7 3 4 6 5 3 5 5 4 5 7 9 9 9 12 14 13 12 14 14 14 14 14 12 11 9 8 8 7 7 7 7 8 10 9 9 9
8 8 8 8 8 9 11 13 12 11 10 7 7 8 6 6 7 6 5 6 5 5 5 6 4 4 5 6 5 6 5 6 8 4 2 3 5 5 6 8 5 6 6 5 4 5 4 5 5 4 5 7 8 10 12 10 13 15 15 15 14 12 11 9 9 8 7 8 8 9 9 10 9 9
7 8 8 8 12 14 15 15 15 15 15 14 11 9 7 8 7 7 6 6 6 6 6 7 6 6 7 7 6 6 6 5 4 5 5 5 7 4 5 5 6 3 3 3 5 6 3 3 6 4 6 5 5 5 5 9 10 12 15 15 15 14 12 10 9 8 7 8 8 9 9 10 8 8
8 8 8 8 9 11 12 13 15 16 16 16 17 17 14 11 9 7 7 7 6 6 7 6 5 6 8 9 7 7 7 5 5 6 5 6 5 5 4 5 7 3 5 3 2 5 2 3 5 6 6 6 4 5 8 12 13 14 13 14 15 15 13 11 9 8 8 8 8 9 9 9 8 8
7 8 8 7 7 7 9 9 9 12 15 17 17 17 16 15 15 13 10 9 6 6 7 7 8 6 8 9 6 7 4 7 5 6 5 6 6 5 4 4 4 4 0 2 3 7 3 3 5 6 7 6 5 7 10 13 13 13 14 14 15 15 14 11 9 8 8 8 8 8 9 9 8 8
8 7 7 7 7 8 12 11 9 7 8 12 16 16 15 14 13 14 15 14 11 7 7 8 8 8 7 7 8 6 4 2 5 5 5 4 4 4 6 7 5 8 1 1 3 7 6 2 3 6 7 5 5 6 9 13 13 13 14 14 14 15 14 12 10 8 8 7 8 8 8 8 8 7
8 8 8 8 8 7 7 6 7 6 7 7 7 7 8 9 12 14 14 15 15 11 9 8 10 10 6 9 9 8 3 3 7 6 7 5 5 6 8 6 6 6 3 3 3 6 10 2 3 7 8 5 5 6 8 11 12 13 13 14 15 15 14 12 10 9 8 8 8 7 8 8 7 7
9 8 8 8 9 9 8 8 9 7 7 6 7 6 7 8 9 9 10 10 9 9 8 9 11 11 9 10 10 8 5 7 8 7 6 4 4 5 3 5 6 8 4 4 2 6 9 2 2 7 7 6 7 6 6 7 10 12 13 14 15 15 14 12 11 10 8 8 8 8 7 6 7 7
8 8 8 8 9 9 9 12 15 13 9 7 8 8 8 8 8 8 10 13 13 11 11 11 12 11 12 13 10 9 7 6 6 4 1 3 5 7 7 9 9 8 4 5 4 3 6 6 4 7 6 4 7 8 4 5 8 11 12 13 14 14 13 12 11 10 9 8 8 8 7 7 7 7
7 8 8 8 9 9 9 12 14 15 12 8 9 9 10 9 9 10 8 11 15 16 17 17 18 17 17 16 16 15 14 10 6 2 3 8 8 6 7 8 7 9 5 3 6 4 6 7 3 6 4 4 6 7 8 3 5 9 11 12 13 13 13 12 11 10 9 9 9 8 8 8 8 7
7 7 12 11 9 10 11 14 14 15 10 8 10 10 10 10 11 12 9 6 7 13 16 17 16 15 15 15 15 15 15 15 7 5 9 11 6 7 6 9 8 8 5 7 6 2 8 6 2 4 4 3 4 5 5 1 1 3 6 8 10 11 11 11 10 10 9 9 9 8 9 9 8 6
7 8 9 13 12 10 11 14 13 14 9 8 9 9 8 10 12 13 6 4 7 7 5 7 8 10 14 14 12 13 17 17 11 8 11 9 7 9 9 8 7 8 8 6 8 5 4 3 4 4 2 3 5 0 2 1 1 1 1 3 5 8 9 9 9 10 10 9 9 9 9 9 7 5
6 7 7 10 14 15 15 14 13 12 9 8 7 5 7 9 13 9 4 5 7 7 8 9 9 10 10 9 8 8 9 10 10 11 10 10 9 9 10 9 8 9 6 2 7 7 4 3 5 4 6 3 4 1 1 1 2 2 3 4 5 7 7 7 7 10 10 9 9 9 9 8 7 5
6 6 7 7 11 14 15 14 14 14 12 11 8 8 9 10 11 7 5 5 6 6 7 8 9 8 7 7 7 7 8 8 8 8 9 10 10 10 10 9 8 10 11 8 8 4 5 3 4 2 2 4 4 4 2 1 3 5 5 6 6 4 5 6 4 6 7 10 11 10 9 8 10 8
6 7 7 7 9 13 13 12 12 13 12 10 6 10 13 14 14 11 7 6 6 6 7 7 7 7 7 7 7 7 8 8 8 8 8 9 10 10 11 11 10 10 11 9 13 9 7 6 8 7 4 3 6 4 4 4 4 4 4 5 6 6 6 6 5 6 6 5 6 8 8 10 10 13
7 6 5 6 7 8 10 8 6 6 9 7 8 13 11 11 11 7 6 6 6 6 8 8 10 10 8 8 8 7 8 8 8 8 8 8 9 10 11 11 11 12 12 8 5 7 8 6 4 7 8 6 6 4 4 5 4 1 2 6 6 6 5 6 7 7 6 6 6 6 8 8 10 11
8 7 6 6 12 13 12 10 8 7 6 7 11 8 8 7 4 3 4 4 5 6 7 8 9 10 9 9 9 9 8 9 8 9 9 9 10 10 9 10 12 12 12 10 7 5 6 8 7 7 8 8 7 7 9 6 4 6 5 2 5 6 6 7 8 6 6 6 5 5 5 6 6 5
6 9 13 15 15 14 15 15 13 10 10 13 12 10 8 4 2 3 4 5 4 6 7 8 9 9 9 9 10 9 9 8 6 6 6 7 7 6 7 8 8 9 8 8 9 9 8 9 10 8 6 6 8 8 7 10 6 4 6 4 3 7 8 7 8 8 8 6 7 7 9 9 7 6
10 11 11 11 11 9 8 7 4 5 6 8 12 12 8 4 5 4 5 5 6 8 8 8 10 10 8 8 8 9 7 8 10 8 7 6 7 5 6 7 9 8 8 8 9 9 9 9 10 9 9 8 8 9 9 9 8 7 6 7 6 1 6 8 9 9 8 9 9 9 9 7 7 7
6 7 7 7 9 9 11 10 9 8 8 7 6 6 6 7 7 7 7 8 9 11 11 11 11 10 9 8 8 8 8 9 9 6 7 8 9 6 6 8 11 9 8 7 9 9 9 10 10 9 10 10 9 10 10 9 9 7 7 7 7 8 5 7 8 8 10 9 7 7 6 6 6 8
7 6 7 7 5 5 5 5 4 4 4 5 5 6 6 6 7 8 11 10 8 9 9 10 10 10 9 9 10 9 9 9 9 6 8 9 9 7 5 6 11 9 10 8 8 9 10 11 11 11 13 12 12 11 9 9 10 9 9 8 9 9 6 8 9 9 9 7 6 8 9 8 9 9
6 5 5 5 5 4 5 6 6 6 6 5 5 6 5 6 6 6 6 8 9 9 9 10 10 10 8 9 8 9 9 10 9 6 8 8 9 7 6 10 11 10 10 10 7 7 8 9 10 12 11 11 13 12 10 9 9 9 10 9 9 9 8 8 9 8 7 7 10 8 8 9 10 9
6 6 6 5 5 5 5 6 6 7 7 7 7 6 5 6 6 7 7 8 9 9 9 10 10 9 8 8 7 8 9 10 9 8 9 10 8 8 8 9 10 9 9 11 10 8 6 7 6 8 8 9 9 11 12 12 10 9 10 9 9 10 10 9 9 9 11 10 10 9 9 9 10 9
4 7 7 7 5 5 5 5 6 7 7 7 7 7 7 6 7 7 8 8 8 9 9 10 10 9 8 8 7 8 9 9 10 8 7 8 8 9 9 9 10 9 10 11 10 9 7 8 7 7 6 6 8 10 10 11 9 9 7 8 8 9 8 8 8 9 10 7 5 9 10 7 8 9
7 6 6 6 6 6 6 6 6 7 7 7 7 7 7 7 7 8 9 9 8 8 8 9 9 8 8 7 7 8 9 9 9 9 9 8 8 8 9 10 11 12 11 11 11 9 8 8 8 8 9 7 7 10 8 13 18 11 9 9 7 7 7 4 6 6 8 8 9 9 10 11 12 9
6 6 6 6 6 6 7 7 7 7 8 8 8 7 8 8 8 8 10 10 9 9 9 9 9 8 7 7 8 9 9 9 10 9 9 9 8 9 10 12 13 13 11 12 10 9 7 8 8 8 9 8 9 12 11 1 13 18 10 11 10 9 8 6 7 7 8 10 9 10 11 11 12 9
8 8 9 9 9 9 9 9 9 9 9 9 9 8 8 9 9 9 9 8 9 9 9 8 8 8 9 9 9 9 8 8 8 9 9 8 9 11 12 13 13 11 11 11 9 10 8 9 9 9 9 10 10 10 11 6 4 10 18 13 9 6 5 6 6 7 7 7 10 11 9 10 13 11
9 11 11 11 11 11 11 10 9 9 9 9 9 10 11 11 10 9 9 9 10 9 9 9 9 8 9 10 9 10 10 9 9 9 9 10 11 12 12 11 12 11 9 11 10 7 6 8 8 9 10 10 11 10 10 8 10 4 5 12 9 7 5 6 7 7 6 7 9 7 8 9 4 0
8 8 9 10 10 11 11 11 11 10 10 10 9 9 9 9 9 9 10 11 11 12 11 11 11 9 9 9 9 9 9 10 11 10 11 11 11 10 10 10 11 11 10 12 12 9 8 9 8 10 10 11 11 9 2 3 6 4 6 9 16 13 9 6 8 8 8 9 6 6 10 7 9 4
8 8 8 8 10 10 11 11 11 11 11 10 9 9 9 9 9 9 9 9 10 12 10 10 9 9 10 10 9 9 10 10 9 10 10 11 11 11 14 13 11 10 10 13 13 12 10 8 10 13 13 8 4 5 2 5 10 11 8 8 14 21 20 15 11 9 10 6 8 10 10 9 9 5
8 8 8 8 9 9 9 10 11 11 11 11 11 10 10 10 10 12 11 10 9 9 10 10 8 8 9 10 10 9 10 10 10 11 10 10 11 11 12 10 11 11 10 13 14 12 6 5 9 10 7 4 5 7 8 9 11 12 10 7 5 13 20 20 20 17 13 8 7 8 7 5 1 5
7 8 9 9 9 9 9 10 10 10 11 11 10 10 10 10 10 11 10 10 9 9 8 8 8 10 10 9 9 9 10 10 10 11 11 11 11 11 11 11 11 12 12 14 13 8 4 5 5 5 7 7 8 8 9 10 10 10 11 11 10 4 6 13 17 19 21 20 19 19 14 10 7 6
4 5 6 7 9 10 10 10 10 10 10 10 11 10 10 11 11 11 10 10 10 10 9 8 8 7 8 9 10 11 10 8 9 10 11 11 10 10 11 11 11 11 11 11 11 9 6 7 8 9 10 10 8 7 10 10 9 10 11 11 9 8 8 2 4 9 11 15 18 19 20 18 20 23
3 4 4 5 7 9 9 9 9 10 11 11 11 11 10 10 10 10 10 10 10 10 9 10 10 10 10 10 10 10 10 11 11 8 7 7 7 8 9 10 10 10 11 11 10 10 8 9 10 10 9 9 9 9 9 8 9 10 11 9 12 12 8 3 3 6 7 9 15 23 23 22 22 23
Wind_Direction
264 279 280 275 270 237 236 221 202 193 170 156 150 165 145 155 112 326 338 292 274 310 331 199 290 264 254 262 274 269 256 256 240 223 228 239 243 239 235 236 235 230 221 225 233 235 236 232 236 246 259 265 274 285 297 308 321 328 337 338 346 344 351 350 344 347 352 352 349 348 348 346 348 351
252 269 286 280 282 274 227 268 241 220 211 135 170 160 166 144 140 170 179 272 222 262 309 237 313 317 312 277 264 240 252 244 240 239 228 239 247 245 238 239 238 234 227 226 232 234 237 237 234 240 249 262 272 278 285 297 308 318 326 331 342 340 343 345 339 346 348 349 346 344 342 343 346 348
239 260 275 285 282 278 273 304 268 252 215 230 156 167 139 166 135 154 136 177 284 199 293 290 279 271 289 296 285 276 259 255 238 240 235 241 249 254 254 245 243 237 231 230 233 235 238 239 235 236 241 248 260 268 277 285 293 301 308 322 337 333 335 335 333 343 345 344 343 339 338 339 342 343
233 236 255 269 266 271 255 259 288 275 266 232 228 165 142 167 164 142 144 179 253 251 234 261 277 256 266 299 315 324 320 295 254 236 239 248 263 267 251 248 242 240 233 232 234 235 237 238 237 235 237 239 241 255 268 275 280 285 293 308 325 322 320 320 323 337 339 339 340 337 335 335 340 338
242 241 251 261 257 262 245 237 223 264 279 294 294 278 171 195 189 167 168 204 268 292 252 248 263 294 305 310 193 330 331 340 336 310 273 278 272 263 251 244 241 238 234 233 234 236 237 237 236 236 236 236 233 245 257 268 273 277 278 276 289 294 303 307 313 325 332 334 336 335 333 335 336 339
234 240 242 264 264 241 237 237 239 219 230 263 277 277 236 247 239 208 181 224 218 273 313 303 301 293 267 296 260 18 329 319 321 317 300 282 260 261 253 239 247 233 234 233 234 237 239 238 235 235 236 235 236 241 252 261 269 272 272 264 258 261 268 291 304 315 326 328 333 333 333 336 339 340
226 234 239 251 260 249 239 242 244 236 228 214 222 256 249 253 260 234 204 191 239 258 272 229 255 250 270 225 267 279 257 267 262 283 292 289 294 287 262 240 246 232 228 232 234 236 239 240 236 232 235 236 234 237 247 256 262 267 267 257 255 251 252 275 294 305 316 324 328 330 329 334 341 341
223 227 233 244 246 246 232 238 241 250 252 234 226 241 255 240 259 263 215 215 219 232 251 287 243 256 243 284 261 257 292 293 301 290 290 293 283 279 283 258 255 244 228 229 232 236 239 242 240 233 234 237 234 234 239 247 255 260 261 256 250 243 237 246 268 291 305 315 321 319 314 315 325 332
216 225 226 232 229 225 226 241 234 241 247 252 234 229 243 243 249 267 239 235 223 236 251 271 278 285 289 263 288 292 298 308 303 299 288 285 290 290 281 281 256 254 235 230 235 239 241 244 245 239 236 237 237 235 236 240 247 253 256 254 245 236 227 231 238 264 284 305 311 308 301 308 324 329
216 221 226 230 221 217 217 228 232 230 235 241 246 247 247 241 246 253 264 240 230 231 245 245 278 297 262 297 283 262 234 276 299 307 299 301 286 276 300 287 281 265 207 221 237 246 250 250 248 246 241 239 238 238 236 237 241 246 250 251 246 237 227 221 230 245 257 277 303 298 297 304 321 324
221 221 223 225 223 222 220 226 228 228 233 231 237 236 237 234 224 239 251 257 242 233 255 275 255 275 284 249 278 287 243 249 237 268 304 307 293 285 248 285 287 276 260 242 232 235 231 241 245 241 238 242 241 240 238 239 240 242 245 248 246 237 227 219 221 234 247 261 278 285 288 296 312 316
223 224 226 226 223 222 224 222 227 218 227 224 235 236 230 232 224 229 232 232 229 235 243 246 265 257 264 293 268 305 347 314 303 246 232 263 287 297 285 242 275 290 271 276 271 249 249 262 255 253 243 239 239 240 243 243 243 241 241 243 243 239 232 220 216 224 238 248 261 275 284 294 303 307
229 230 231 233 232 227 227 223 223 222 216 214 226 236 218 226 225 230 225 222 224 234 229 255 245 266 284 276 283 291 278 259 254 257 176 254 265 276 300 293 268 246 262 275 273 275 232 258 263 241 250 247 237 242 235 247 243 240 238 239 240 239 233 221 213 216 232 244 253 265 278 290 296 301
229 232 232 236 235 234 234 233 231 232 230 225 221 227 212 218 217 223 229 233 231 232 240 243 245 261 262 261 249 251 249 241 266 288 281 277 284 312 290 284 272 245 202 246 280 272 245 224 280 253 251 255 210 230 211 232 231 234 231 233 236 236 235 226 213 211 226 241 252 266 276 283 290 296
232 234 236 240 247 243 241 243 241 237 237 237 235 236 228 213 204 215 222 232 224 220 230 240 236 239 255 258 247 244 257 249 235 247 261 270 285 280 282 291 305 280 191 233 226 280 265 179 256 274 264 259 213 218 229 233 232 235 230 227 232 234 234 230 217 210 222 239 251 264 273 278 287 288
231 234 236 239 242 245 245 244 248 246 245 244 244 244 243 237 226 218 209 221 226 220 230 240 235 230 240 256 249 253 245 253 259 253 255 258 256 264 265 250 252 258 177 223 292 279 268 191 236 269 265 262 240 230 236 234 233 231 227 225 227 231 231 228 221 213 215 231 246 258 269 277 283 287
229 229 235 242 241 246 247 246 244 242 250 250 250 255 262 267 259 252 241 228 223 213 221 228 241 224 234 246 253 233 229 198 244 263 260 254 250 246 257 252 260 280 223 239 272 278 271 179 239 260 267 255 252 254 240 238 232 227 222 221 224 226 226 223 218 216 217 225 239 252 266 277 283 289
233 230 229 235 243 243 247 246 244 242 241 250 256 254 249 248 253 250 246 249 249 242 229 223 235 242 203 234 245 248 202 213 244 251 259 261 270 258 244 245 246 263 154 225 269 288 286 230 238 265 275 269 270 252 250 245 232 222 217 216 219 222 221 218 214 215 216 223 232 242 257 267 278 287
235 234 233 233 239 242 240 241 242 241 243 243 247 251 251 245 245 244 244 239 235 233 236 234 236 246 235 234 244 250 214 217 232 231 247 248 243 263 287 306 265 277 233 196 164 260 285 258 235 265 274 287 281 268 249 252 235 219 213 212 215 216 216 215 212 212 215 221 224 233 246 259 262 273
237 236 235 236 242 243 243 245 244 244 241 238 245 250 253 257 254 248 238 237 236 234 232 234 239 242 244 242 242 242 236 237 245 246 289 297 275 281 290 279 288 283 270 165 188 250 275 266 234 271 273 272 278 278 253 240 227 220 213 213 212 212 211 211 209 209 215 219 222 227 234 235 242 254
242 242 237 234 240 245 245 246 242 244 242 245 246 248 254 256 259 258 253 240 240 242 242 242 244 248 252 255 256 256 253 249 260 288 298 267 258 266 272 275 277 270 283 245 191 206 263 268 221 271 265 244 257 272 270 226 218 223 218 213 212 208 207 209 208 212 215 219 221 223 226 224 224 238
256 251 249 244 241 245 250 249 245 244 238 243 248 250 253 259 260 261 253 253 244 233 238 248 254 261 266 265 267 268 266 263 242 206 240 248 252 253 236 261 262 279 284 254 156 170 238 269 221 253 282 300 240 249 274 279 160 200 227 225 215 211 211 208 210 213 219 222 223 223 222 222 216 232
243 252 254 255 254 249 250 251 251 250 234 234 242 245 250 257 261 259 266 249 261 261 255 251 244 253 249 248 244 246 247 250 244 218 234 251 237 247 248 246 270 289 271 244 162 203 260 215 251 200 314 297 275 305 341 314 185 167 174 204 224 226 220 218 217 220 224 225 226 226 222 219 203 226
246 245 251 252 252 255 256 257 255 253 236 232 244 238 237 246 258 267 264 233 240 254 253 255 244 244 246 247 241 240 245 245 235 228 224 228 228 238 249 242 226 236 250 257 173 186 254 189 259 190 198 245 291 281 9 315 214 191 181 192 223 222 215 227 237 232 232 232 231 231 224 208 192 220
260 258 252 256 252 251 256 257 256 251 240 226 238 239 242 242 261 294 287 275 271 269 266 263 263 259 257 251 248 246 243 241 239 230 221 221 219 223 238 246 239 245 246 240 169 199 244 207 252 192 227 179 234 286 273 263 247 205 200 199 216 200 188 220 222 233 229 233 235 236 233 206 200 212
251 250 252 255 254 254 260 274 281 283 282 269 249 251 250 267 282 291 302 308 303 289 286 280 275 270 263 259 249 245 243 241 237 232 224 216 220 220 225 228 237 251 250 234 184 213 225 262 242 252 239 219 265 216 273 270 241 214 191 205 211 209 193 210 211 231 224 221 225 223 225 213 207 216
275 271 280 277 301 6 15 6 341 315 296 282 251 253 264 271 281 291 276 282 280 276 274 275 274 272 266 263 256 244 246 243 235 233 226 223 218 224 229 231 235 244 255 260 202 209 203 235 215 211 239 218 244 269 241 260 263 105 228 217 214 214 196 193 216 224 218 217 228 214 219 230 219 220
292 293 287 319 343 327 326 320 318 317 307 277 284 285 263 258 255 242 260 254 253 258 258 261 264 266 265 264 265 257 246 247 237 232 232 233 229 228 232 235 239 243 253 261 255 221 213 235 246 231 223 226 231 243 259 248 221 178 216 185 208 214 199 197 217 224 220 212 216 208 212 234 225 195
292 308 319 316 311 310 304 300 293 283 270 261 263 265 262 249 220 218 225 239 237 249 249 252 256 260 259 257 261 266 264 261 257 247 251 248 249 243 247 247 245 243 240 243 246 240 226 231 246 249 235 218 222 237 230 253 247 223 191 154 239 214 205 200 208 214 219 202 209 207 215 216 212 194
285 285 286 290 290 286 281 284 294 286 283 276 264 258 244 233 229 226 240 252 249 258 263 261 261 260 259 255 258 262 265 262 256 253 256 253 253 241 253 268 262 247 236 235 234 234 232 231 235 242 245 237 220 237 235 247 250 239 187 203 218 120 197 193 204 210 208 211 210 212 222 207 209 179
323 313 309 299 290 274 270 267 265 272 283 286 277 263 247 244 241 236 233 242 253 260 263 265 263 266 265 267 265 261 256 256 258 238 246 249 253 237 238 246 262 263 248 229 223 221 223 227 226 219 231 239 234 229 236 227 243 239 227 209 175 227 199 186 200 207 207 213 210 218 222 207 213 206
307 300 297 290 288 291 287 279 283 270 249 243 258 257 251 251 243 240 238 242 248 256 258 265 270 272 269 268 264 265 258 254 254 228 228 238 248 231 223 245 257 258 262 242 231 225 220 221 222 220 220 223 230 235 227 220 225 227 238 209 203 224 178 190 197 210 200 187 199 225 217 209 214 213
296 300 302 313 309 307 303 304 302 301 297 288 264 262 257 250 249 250 243 244 244 245 249 250 249 251 252 258 260 262 263 258 255 228 235 239 242 243 212 242 255 261 265 265 246 236 226 227 224 226 227 229 230 231 228 233 221 215 224 222 200 209 205 209 198 197 152 168 213 218 226 218 219 215
295 303 311 301 299 299 302 300 297 297 296 297 295 282 266 256 259 256 252 247 251 250 248 252 253 250 242 247 249 254 259 267 259 241 226 245 236 243 241 249 255 253 257 263 261 253 243 238 236 244 248 250 250 238 230 235 237 214 219 220 206 214 211 198 204 183 174 190 195 208 224 233 223 214
286 306 307 305 299 281 275 276 281 280 280 279 278 277 270 256 257 259 259 258 253 251 250 250 250 254 253 250 245 243 248 255 260 255 238 243 246 244 249 253 258 251 246 252 252 246 230 232 224 241 255 262 268 264 247 247 256 244 244 242 225 228 220 194 191 187 189 197 170 207 226 237 238 218
314 313 308 308 304 300 292 285 283 284 282 279 272 272 266 257 247 249 257 254 251 253 252 252 253 251 251 253 254 252 251 248 253 252 253 244 244 247 249 249 252 252 243 243 245 235 222 224 209 217 232 242 247 269 263 232 227 233 226 244 238 236 239 193 194 178 179 193 197 203 218 228 237 224
312 316 312 309 308 308 311 312 309 301 294 288 281 270 264 266 263 255 255 254 258 255 254 257 262 261 257 253 252 247 247 246 253 250 251 249 245 245 249 251 247 249 249 246 242 238 217 222 211 212 221 227 234 248 253 167 241 233 218 228 233 210 209 177 154 182 200 194 200 204 216 223 236 232
335 336 336 340 343 344 344 347 346 341 335 326 312 295 278 267 266 267 267 264 260 261 256 251 253 253 256 257 257 257 252 248 250 255 252 249 246 246 243 248 254 251 251 255 247 240 218 216 206 204 205 218 229 240 263 249 242 239 225 225 239 223 184 175 173 200 206 202 212 213 214 232 235 239
3 360 355 351 348 346 345 345 345 340 337 334 337 338 338 335 326 309 291 275 271 266 265 263 256 248 251 254 252 257 260 258 254 251 251 249 245 250 255 254 261 260 262 262 252 236 222 217 206 200 197 206 216 227 232 243 251 249 226 210 226 248 216 180 223 218 207 205 225 232 233 243 329 357
2 3 356 350 344 343 340 337 337 335 328 327 326 330 331 330 327 326 328 325 307 283 268 264 265 265 258 253 253 253 253 252 252 253 253 256 256 255 257 255 253 258 256 258 259 240 227 235 223 221 214 215 222 223 223 280 287 262 247 237 212 211 225 177 211 222 230 219 194 192 233 225 239 226
354 357 360 350 341 337 335 331 331 327 320 322 323 324 324 322 318 319 322 319 322 314 298 273 265 259 262 264 258 249 251 249 247 249 251 255 257 257 256 259 264 260 260 263 259 254 242 237 243 238 229 225 190 59 43 277 265 268 250 235 204 210 215 212 218 215 232 206 181 214 224 219 231 226
349 352 346 343 337 331 328 325 323 322 324 328 326 324 322 319 315 311 309 308 314 323 324 318 301 274 259 255 253 249 246 248 248 250 249 249 251 252 256 255 258 260 252 258 259 261 268 209 222 222 224 201 167 167 216 232 257 274 279 262 226 207 213 216 220 221 223 184 173 220 218 242 181 248
352 343 339 338 336 331 328 322 323 328 328 325 321 323 321 318 316 319 322 321 320 316 310 319 334 334 324 308 285 258 247 247 249 253 252 248 247 247 246 243 245 250 250 255 260 257 203 198 187 189 198 207 218 182 218 239 243 259 275 279 271 236 221 221 222 226 231 223 206 213 210 194 138 213
347 337 329 331 329 328 325 325 328 329 326 323 321 322 322 322 320 320 318 314 316 313 319 330 334 330 323 320 324 319 302 281 266 256 248 246 241 240 243 246 243 244 248 251 261 251 219 212 210 208 205 217 213 203 227 244 253 253 262 269 283 287 265 216 216 245 247 245 244 248 246 228 215 228
336 327 327 327 326 322 321 323 326 326 324 321 320 320 318 317 313 315 314 316 315 320 337 341 335 332 327 322 319 311 308 309 302 290 278 269 260 257 252 253 253 251 249 249 251 251 225 214 215 210 212 213 208 206 226 231 247 263 266 275 282 272 272 252 223 237 236 256 233 222 230 238 243 245